Lapse_Rate
5.1 5.4 5.4 5.4 5.3 5.2 5.2 5.0 5.3 5.4 5.2 5.2 5.3 5.3 5.1 5.1 5.2 6.9 8.1 8.9 8.5 7.5 8.3 9.3 9.3 9.1 9.0 8.3 8.4 8.2 6.5 6.5 6.5 6.5 6.5 7.1 6.6 7.6 7.6 7.5 7.8 8.0 7.9 7.9 8.3
5.1 5.2 5.1 5.0 5.1 5.4 5.4 5.6 5.4 5.0 4.7 4.6 4.8 4.9 5.0 5.0 7.0 7.3 8.3 8.4 8.9 8.5 9.2 8.8 8.3 8.6 8.0 7.8 7.8 7.0 6.5 6.5 6.5 6.6 6.5 6.9 6.9 7.1 7.1 7.2 7.3 7.6 5.2 7.5 4.6
4.9 4.9 4.8 4.4 4.7 5.3 5.5 5.3 5.0 4.8 4.6 4.5 4.5 4.7 4.9 5.5 7.7 8.3 7.7 8.0 8.0 8.2 8.7 9.2 8.9 8.3 7.3 7.7 7.4 6.9 6.5 6.5 6.8 7.2 7.3 6.9 6.9 7.5 6.9 6.5 7.3 7.3 7.6 6.9 4.6
4.7 4.7 4.8 4.5 4.5 4.9 5.0 5.1 4.7 4.7 4.4 4.2 4.6 4.8 5.1 7.0 6.5 8.3 7.5 7.6 7.1 7.8 8.1 8.7 8.4 7.4 6.8 6.5 7.4 6.5 6.9 7.1 7.1 7.3 7.2 6.7 7.4 6.9 7.2 7.1 7.9 8.1 8.2 7.4 7.0
4.4 4.5 4.6 4.7 4.5 4.3 4.3 4.7 4.5 4.7 4.4 4.6 4.9 4.7 6.6 8.0 7.9 8.1 7.0 7.1 7.3 7.2 8.4 8.3 7.8 7.5 6.5 6.8 7.0 6.5 6.7 7.2 7.4 7.4 7.4 7.5 6.9 6.8 7.2 8.0 8.3 7.5 7.4 7.1 8.1
4.0 4.2 4.2 4.4 4.2 3.9 3.8 4.3 4.4 4.7 4.6 4.8 5.0 5.3 7.1 6.9 7.6 7.5 6.9 7.5 7.2 7.1 7.2 8.5 8.0 8.1 7.2 6.9 6.6 7.0 6.9 7.0 7.2 7.2 7.3 6.7 6.9 7.1 7.3 7.8 7.9 6.5 7.6 8.1 8.1
3.9 3.9 3.8 3.7 4.0 3.8 3.6 3.8 4.2 4.4 4.5 4.8 5.2 6.2 6.6 7.6 7.8 7.7 7.4 7.6 7.1 7.3 7.7 8.3 8.6 7.7 7.7 6.6 7.6 7.2 6.5 6.5 6.8 7.0 6.6 7.2 6.5 6.5 7.6 8.0 7.6 7.7 7.6 7.8 8.1
3.6 3.4 3.5 3.3 3.4 3.5 3.3 3.4 3.9 4.1 4.5 4.9 5.2 7.0 7.6 7.4 8.0 8.5 8.7 8.3 8.4 7.5 6.8 7.7 8.6 8.1 7.6 7.8 7.1 6.5 6.5 6.5 6.5 6.7 6.9 6.9 6.5 6.5 7.7 7.6 7.4 7.6 7.8 6.9 7.9
3.6 3.4 3.2 3.0 3.0 3.1 3.2 3.6 3.8 4.3 4.8 5.0 6.3 7.4 7.3 7.3 7.8 8.1 7.7 7.7 7.9 8.0 7.4 7.5 8.0 7.5 6.9 6.5 6.5 6.5 6.5 6.5 6.5 6.7 6.5 6.5 6.5 6.5 7.6 7.4 7.3 7.5 7.8 7.8 7.9
3.7 3.3 3.4 3.1 2.8 2.7 3.1 3.6 4.2 4.3 5.1 5.6 6.2 6.8 7.2 7.7 7.2 7.5 7.8 7.4 7.7 8.0 7.8 7.4 7.2 6.5 6.5 6.5 6.5 6.5 6.5 6.5 6.5 6.5 6.5 6.5 6.5 6.5 7.3 7.2 7.2 7.5 7.7 7.9 7.9
3.3 3.3 3.3 3.4 3.1 2.7 3.4 5.5 6.7 7.1 6.4 7.5 7.5 7.4 7.0 7.2 6.8 7.6 7.7 7.2 8.0 7.7 6.5 7.1 6.5 6.5 6.5 6.5 6.5 6.5 6.5 6.5 6.5 6.5 6.5 6.5 6.5 6.5 6.9 7.2 7.1 7.3 7.6 7.8 7.9
2.9 3.0 3.3 3.6 3.3 3.0 3.6 6.2 6.6 6.1 7.0 5.9 6.2 6.4 6.3 6.8 7.5 7.7 7.6 7.5 7.1 6.5 6.7 6.5 6.5 6.5 6.5 6.5 6.5 6.5 6.5 6.5 6.5 6.5 6.5 6.5 6.5 6.5 6.5 6.8 7.1 7.3 7.5 7.7 7.9
2.7 2.8 2.9 3.0 3.3 3.4 4.9 6.0 5.0 6.1 7.1 7.2 6.7 7.0 7.1 7.1 7.4 7.5 7.4 7.7 6.7 6.5 6.5 6.5 6.5 6.6 6.5 6.5 6.5 6.5 6.5 6.5 6.5 6.5 6.5 6.5 6.5 6.5 6.5 7.0 7.2 7.5 7.7 7.8 7.9
2.4 2.5 2.5 2.8 3.8 4.3 5.8 5.0 4.7 6.1 6.5 6.5 6.8 7.5 7.0 7.4 6.9 7.7 7.6 7.6 6.7 6.5 6.5 6.5 6.6 6.5 6.5 6.5 6.5 6.5 6.5 6.5 6.5 6.5 6.5 6.5 6.5 6.5 6.5 6.5 6.5 7.1 7.5 7.7 7.9
2.7 2.5 2.2 2.3 3.0 5.6 5.3 4.5 4.9 6.9 6.5 6.5 6.8 7.5 7.3 7.2 7.3 7.4 7.3 7.7 6.5 6.5 6.5 6.5 6.5 6.5 6.5 6.5 6.5 6.5 6.5 6.5 6.5 6.5 6.5 6.5 6.5 6.5 6.5 6.5 6.5 6.6 7.3 7.6 7.9
2.7 2.5 1.9 2.8 2.7 4.8 4.3 4.9 6.4 6.5 6.5 6.5 6.9 6.6 6.6 7.0 7.0 7.5 7.5 7.8 7.6 6.5 6.5 6.5 7.1 6.5 6.5 6.5 6.5 6.5 6.5 6.5 6.5 6.5 6.5 6.5 6.5 6.5 6.5 6.5 6.5 6.7 7.3 7.6 7.8
2.6 2.2 2.5 2.3 5.1 3.9 4.7 7.0 6.5 6.5 6.5 6.5 6.5 6.5 6.5 6.5 6.5 6.5 6.5 6.5 6.5 6.5 6.5 6.5 6.5 6.5 6.8 6.5 6.5 6.5 6.5 6.5 6.5 6.5 6.5 6.5 6.5 6.5 6.5 6.5 6.5 6.5 7.1 7.6 7.7
2.6 1.6 1.8 3.4 2.9 3.5 6.6 6.6 6.5 6.5 6.5 6.5 6.5 6.5 6.5 6.5 6.5 6.5 6.5 6.5 6.5 6.5 6.5 6.5 6.5 6.5 6.5 6.5 6.5 6.5 6.5 6.5 6.5 6.5 6.5 6.5 6.5 6.5 6.5 6.8 7.1 7.2 7.4 7.5 7.6
2.5 2.6 3.7 3.4 3.2 4.6 7.4 6.5 6.5 6.5 6.5 6.5 6.5 6.5 6.5 6.5 6.5 6.5 6.5 6.5 6.5 6.5 6.5 6.5 6.5 6.5 6.5 6.5 6.5 6.5 6.5 6.5 6.5 6.5 6.5 6.5 6.5 6.5 6.5 6.5 6.7 6.9 7.2 7.4 7.5
4.1 4.4 4.8 3.0 4.0 6.4 6.7 6.5 6.5 6.6 6.6 6.5 6.5 6.5 6.5 6.5 6.5 6.5 6.5 6.5 6.5 6.6 6.7 6.5 6.5 6.5 6.5 6.6 6.6 6.5 6.5 6.5 6.5 6.5 6.5 6.5 6.5 6.5 6.5 6.5 6.5 6.5 6.9 7.4 7.6
4.4 6.8 4.0 3.8 6.1 7.6 6.5 6.5 6.5 7.0 7.0 6.5 6.5 6.5 6.5 6.5 6.5 6.5 6.5 6.5 6.5 6.5 6.8 6.5 6.5 6.5 6.5 6.5 6.5 6.5 6.5 6.5 6.5 6.5 6.5 6.5 6.5 6.5 6.5 6.5 6.5 6.5 7.1 7.5 7.6
5.5 6.7 4.6 5.0 7.0 7.0 6.5 6.5 6.5 6.6 7.0 6.6 6.6 6.5 6.5 6.5 6.5 6.5 6.5 6.5 7.0 6.8 6.5 6.5 6.5 6.5 6.5 6.5 6.5 6.5 6.5 6.5 6.5 6.5 6.5 6.5 6.5 6.5 6.5 6.5 6.8 6.9 7.3 7.7 7.8
7.6 7.1 5.6 6.0 6.5 6.5 6.7 6.5 6.7 6.5 6.5 6.5 6.5 6.5 6.5 6.5 6.5 6.5 6.5 6.8 7.0 6.6 6.5 6.5 6.5 6.5 6.5 6.5 6.5 6.5 6.5 6.5 6.5 6.5 6.5 6.5 6.5 6.5 6.5 6.6 7.0 7.0 7.4 7.6 7.7
6.5 6.5 7.2 7.4 7.3 6.6 6.5 6.5 6.5 6.3 6.7 6.8 6.5 6.7 6.5 6.5 6.5 6.5 6.5 6.5 7.0 6.8 6.8 6.7 6.5 6.5 6.5 6.5 6.5 6.5 6.5 6.5 6.5 6.5 6.5 6.5 6.5 6.5 6.5 6.5 6.8 7.2 7.6 7.7 7.8
6.7 6.9 7.3 6.5 6.7 6.6 6.5 6.5 6.5 6.5 6.8 7.0 6.5 6.5 6.5 6.5 6.5 6.5 6.5 6.5 6.7 6.7 6.7 6.5 6.5 6.5 6.5 6.5 6.5 6.5 6.5 6.5 6.5 6.5 6.5 6.5 6.5 6.5 6.5 6.5 6.9 7.4 7.5 7.5 7.6
7.5 7.0 6.3 7.0 7.0 6.6 6.5 6.5 6.5 6.5 6.5 6.5 6.5 6.5 6.5 6.5 6.5 6.5 6.5 6.5 6.5 6.5 6.5 6.5 6.5 6.5 6.5 6.5 6.5 6.5 6.5 6.5 6.5 6.5 6.5 6.5 6.5 6.5 7.0 7.2 7.1 7.3 7.4 7.4 7.5
7.8 5.8 7.1 6.7 6.7 6.5 6.5 6.5 6.5 6.6 6.2 6.7 6.6 6.5 6.5 6.5 7.0 7.2 7.3 7.1 6.7 6.5 6.5 6.5 6.5 6.5 6.5 6.5 6.5 6.5 6.5 6.5 6.5 6.5 6.5 6.5 6.5 6.5 6.5 6.6 7.0 7.3 7.4 7.4 7.5
Wind_Speed
8 8 10 12 13 14 15 15 15 13 11 9 10 13 17 11 3 2 3 4 6 12 10 7 4 3 3 3 2 2 7 13 20 15 14 3 8 4 3 6 6 8 1 3 23
8 9 10 12 14 15 15 15 15 13 10 8 8 11 12 7 4 4 2 10 15 12 9 6 4 4 4 3 4 8 10 14 4 8 7 5 3 4 6 10 9 8 4 11 21
9 11 10 11 13 15 16 17 16 14 10 7 7 10 12 8 4 2 7 16 18 14 8 6 6 5 7 5 7 5 11 8 8 6 5 5 6 6 5 13 13 14 14 18 20
10 11 11 11 12 15 17 17 18 16 11 8 6 9 8 3 7 1 13 17 16 8 6 7 8 7 7 9 7 9 8 11 6 3 5 7 9 7 7 7 4 4 10 18 22
10 10 12 12 12 14 16 18 18 16 11 7 4 8 1 6 3 5 14 14 8 7 10 12 11 9 9 5 8 12 10 9 8 13 14 14 14 13 13 12 11 5 11 18 19
10 11 12 13 14 14 15 17 18 16 11 7 3 4 1 9 1 7 11 9 8 6 4 13 5 9 6 7 9 1 6 9 7 13 12 13 18 7 8 4 6 4 10 15 18
13 12 12 14 16 16 15 17 18 15 11 6 1 1 2 4 3 6 8 7 6 5 5 11 7 6 2 6 6 9 12 13 13 9 12 6 21 25 14 15 11 7 7 10 15
14 14 14 14 16 17 17 18 18 15 10 4 1 2 4 1 6 4 7 4 4 4 5 2 8 8 6 4 5 8 6 9 3 10 8 10 21 22 14 14 15 9 7 9 13
15 15 15 15 16 17 19 20 19 14 7 4 3 2 4 2 4 4 2 5 7 3 2 2 3 5 4 11 8 9 9 7 7 9 6 14 17 15 14 11 15 11 9 9 11
17 17 18 17 16 17 21 23 9 3 3 2 1 3 3 3 3 4 2 2 2 5 1 1 2 5 6 3 5 7 8 8 9 2 8 13 19 15 10 9 14 12 10 10 12
16 17 18 19 17 16 15 4 2 3 4 4 2 3 4 3 1 2 3 2 1 2 3 2 5 9 9 10 10 3 5 8 7 8 7 14 16 17 16 17 15 12 10 12 12
14 16 19 20 17 13 8 4 2 3 5 1 4 3 2 1 3 3 2 4 3 2 2 4 10 10 8 11 11 11 8 7 12 12 9 15 17 16 13 18 16 15 12 12 11
12 15 18 19 17 6 4 3 3 2 4 1 2 3 1 4 3 1 1 3 5 5 6 9 6 3 6 9 12 14 15 11 11 11 11 13 17 15 14 18 14 11 10 10 13
11 12 16 17 5 3 3 1 2 2 3 2 2 1 3 2 3 1 0 2 3 4 3 8 5 9 8 9 6 12 12 10 13 8 6 6 5 7 13 16 16 14 12 11 14
12 10 11 7 6 3 4 2 2 2 3 2 2 2 2 4 5 4 1 3 9 5 2 2 4 5 6 6 8 5 10 14 12 10 11 10 6 10 4 15 19 16 12 12 14
12 10 7 4 1 5 4 3 2 3 4 2 2 2 3 5 3 1 3 3 2 5 8 10 7 6 7 2 11 3 8 7 5 6 6 13 9 7 10 13 15 14 13 13 12
13 10 3 4 2 6 3 3 3 4 2 4 2 3 3 4 3 3 3 5 4 4 3 4 9 6 8 5 2 5 5 5 6 5 5 1 7 12 6 5 4 8 8 11 11
11 7 1 4 2 3 3 2 5 1 4 1 2 3 5 3 3 3 4 5 9 6 4 3 2 5 5 5 2 4 3 2 2 3 3 2 7 5 2 2 2 3 2 7 10
9 1 2 2 7 3 2 3 4 3 0 2 3 2 3 3 4 4 6 4 3 13 4 2 3 3 4 3 3 5 6 2 2 2 2 4 6 8 5 4 3 1 4 8 10
3 1 2 2 5 2 1 6 4 2 2 2 3 2 3 1 3 3 3 3 2 9 5 2 5 2 2 3 4 5 2 3 4 3 3 2 7 8 5 6 2 4 7 8 9
2 2 2 2 3 2 3 6 5 5 5 5 3 2 5 3 3 3 3 2 2 4 9 3 3 1 2 6 5 4 4 4 3 2 3 4 5 5 4 2 3 5 6 9 12
2 3 1 2 3 2 3 4 4 4 3 6 3 6 4 2 4 4 4 3 3 4 3 4 4 5 4 3 1 3 4 8 5 4 1 2 7 5 4 2 7 9 8 11 13
3 1 1 2 4 5 4 4 4 4 5 5 6 7 4 3 4 6 3 1 5 3 2 3 3 4 3 3 2 5 5 6 1 2 5 3 2 5 2 6 7 10 10 10 12
3 3 2 3 2 3 3 5 4 3 4 5 3 3 4 4 7 4 3 2 1 4 2 2 4 9 7 6 2 5 6 13 9 4 4 5 11 1 1 6 7 9 11 12 12
4 4 3 5 8 11 6 3 3 3 4 5 4 9 6 3 3 5 3 4 3 1 3 2 5 4 12 16 8 6 5 11 12 9 5 1 3 3 5 5 7 8 10 12 12
3 3 2 2 3 10 9 5 8 6 6 5 7 4 9 6 5 2 1 3 2 2 2 1 4 3 5 5 5 6 7 9 13 11 12 13 11 5 7 5 7 10 12 13 11
4 2 3 4 5 6 7 9 8 7 5 3 8 5 8 12 9 8 6 3 2 2 2 2 3 3 4 3 3 6 7 8 3 4 4 6 6 13 8 10 11 12 11 12 10
Wind_Direction
350 350 351 351 352 351 349 342 332 323 314 311 333 350 353 356 330 295 301 351 300 293 299 313 286 258 250 238 234 200 236 238 230 237 227 241 235 195 321 165 191 182 286 97 146
332 335 344 345 342 341 335 328 327 325 317 310 331 354 360 342 305 289 5 320 325 326 268 275 271 238 230 227 204 222 235 244 277 260 255 265 281 286 244 192 192 183 138 142 150
324 326 334 338 333 327 326 326 324 322 313 315 344 352 344 322 293 45 337 328 325 319 275 241 254 260 236 234 196 209 246 245 255 261 310 291 265 329 266 229 222 210 171 163 165
320 322 321 325 325 321 321 323 324 324 324 331 333 344 333 305 334 52 330 329 325 321 228 214 226 227 233 225 215 242 245 257 280 300 312 286 315 284 260 261 13 334 183 174 179
318 317 317 314 312 315 318 320 321 326 328 305 317 342 315 322 299 329 326 332 330 319 224 214 217 229 227 223 225 240 247 255 256 279 271 279 273 272 277 277 300 284 179 191 190
324 318 314 310 309 310 311 314 314 320 323 294 317 335 352 325 7 322 328 327 350 328 273 210 227 230 269 231 230 240 256 259 268 266 262 270 267 265 228 248 304 233 212 204 201
329 323 323 321 311 306 309 309 306 311 313 283 313 342 279 290 296 304 323 317 332 320 268 216 221 218 277 246 242 255 263 254 252 257 247 276 259 243 246 259 275 254 224 218 207
341 332 323 323 315 309 307 301 299 302 294 264 268 237 285 224 298 294 328 321 329 330 283 294 229 266 259 284 236 246 246 255 119 227 235 216 250 244 230 241 255 251 221 206 210
344 340 331 323 318 314 307 301 297 294 260 224 218 290 296 312 285 322 304 335 324 2 52 333 210 235 335 242 257 225 264 221 271 232 248 219 255 257 241 240 251 240 229 207 197
338 340 334 328 321 315 313 301 291 281 193 196 157 237 214 333 314 296 238 273 320 325 293 310 238 249 230 184 241 251 245 247 258 190 220 241 250 259 261 257 255 257 232 212 200
342 336 330 325 322 320 325 322 247 208 203 264 300 272 337 332 251 246 288 179 233 275 342 28 269 244 267 268 243 294 293 267 276 270 276 253 257 262 254 251 258 253 242 221 207
339 336 330 324 319 316 300 275 340 350 293 244 243 253 247 70 291 245 287 248 198 266 316 257 258 279 276 264 251 236 241 264 281 276 255 270 263 256 246 247 248 255 249 226 191
336 334 332 329 320 298 266 274 338 280 269 254 222 246 131 183 262 279 258 284 251 236 241 256 270 295 274 270 253 242 247 246 259 306 259 270 271 245 238 234 238 244 249 223 195
333 337 339 337 291 345 261 2 321 299 283 192 196 133 145 215 249 135 195 290 249 271 257 265 273 246 243 248 264 254 221 230 253 270 252 219 271 216 222 215 226 228 215 207 193
327 346 348 18 312 275 352 349 353 256 307 134 160 102 124 239 338 168 174 212 265 250 224 268 245 249 252 236 192 255 206 214 234 244 271 235 254 248 201 223 221 216 208 200 184
328 332 349 84 217 292 340 332 280 250 249 176 157 226 236 208 215 295 226 210 345 277 217 248 260 277 250 198 214 268 242 215 225 250 241 238 233 242 211 235 227 207 212 195 175
320 324 288 143 80 339 327 290 287 237 122 173 220 196 251 241 221 212 248 242 241 286 249 244 240 248 218 259 286 196 183 162 199 198 242 134 228 254 246 291 323 189 190 185 176
318 320 180 186 37 85 294 261 249 309 238 81 236 230 244 197 212 204 282 277 221 223 291 312 249 194 165 216 238 188 235 300 192 198 218 74 236 241 240 151 99 265 186 176 173
321 267 172 93 135 112 293 258 255 226 174 238 244 234 226 224 245 227 221 269 244 190 241 273 260 157 211 257 226 159 229 5 51 57 248 221 258 261 218 197 108 154 203 166 158
288 239 108 106 140 127 132 262 270 233 201 207 258 205 282 273 248 227 222 179 241 205 223 322 297 208 138 229 229 262 9 212 217 254 236 249 281 249 219 212 117 144 177 148 143
246 234 102 179 192 169 210 247 282 240 223 215 231 240 248 281 250 262 270 222 214 172 205 296 244 173 270 208 246 197 212 231 290 295 301 303 293 5 338 291 159 131 155 144 135
265 242 97 222 196 207 218 204 298 253 214 248 246 231 237 240 262 259 253 249 170 168 206 228 299 281 269 156 178 241 260 251 247 190 56 34 272 10 337 102 128 125 132 124 121
254 132 63 267 224 215 235 256 232 230 227 215 231 221 189 239 273 238 253 192 178 185 252 169 227 288 237 174 141 237 219 241 308 334 203 233 322 14 53 121 111 123 124 117 113
265 217 156 209 274 247 246 244 239 217 256 225 246 180 176 237 230 283 263 227 191 212 229 227 251 248 277 287 199 215 199 196 209 226 197 239 303 216 148 134 127 125 129 125 120
220 241 189 193 227 211 199 271 201 260 222 230 230 226 186 240 232 232 249 275 178 329 145 248 271 253 257 259 259 275 242 206 209 215 239 101 338 204 165 154 127 128 125 121 117
261 236 189 252 172 187 198 225 220 226 184 232 233 194 197 221 227 254 235 230 290 148 192 185 272 304 273 234 244 267 256 223 236 252 255 250 273 155 127 133 146 145 135 128 124
204 277 281 165 181 193 202 202 216 159 210 249 219 193 214 238 244 264 244 263 288 294 249 236 284 313 278 0 286 272 257 204 203 206 224 200 171 152 152 170 166 154 147 136 130